Weather in Mikhaylovka

Russia / Astrakhan Oblast     45°55′27″N   47°07′07″E
temp.,
°C
wind,
m/s
gust,
m/s
humid.,
%
clouds,
%
prec.,
mm/h
press.,
hPa
HPBL,
m
1 march, mon
mon101:00+1nw2280100 0.0 101925
04:00+1wnw1182100 0.0 102022
07:000wnw349084 0.0 102177
10:00+3wnw458381 0.0 1023381
13:00+4w567667 0.1 1025749
16:00+6wnw456781 0.3 1024933
19:00+4nw1287100 0.3 102536
22:00+3nnw1191100 0.3 102648
2 march, tue
tue201:00+2nw2395100 0.0 1026142
04:00+2w2397100 0.1 1027199
07:00+1w2598100 0.1 1027338
10:00+2w568998 0.1 1028508
13:00+3w6775100 0.1 1026845
16:00+4w71063100 0.1 10241188
19:00+4wsw6106795 0.0 1022717
22:00+4wsw6126897 0.1 1021502
3 march, wed
wed301:00+3wsw71476100 0.0 1018522
04:00+3wsw91583100 0.0 1016970
07:00+2wsw91674100 0.0 1015904
10:00+3wsw121878100 0.1 10151318
13:00+4w121685100 0.3 10141225
16:00+3wnw91385100 1.1 1014967
19:00+2wnw6117699 0.1 1016682
22:00+1wnw5127582 0.2 1019429
4 march, thu
thu401:000wnw612814 0.0 1020585
04:00−1wnw597743 0.1 1022709
07:00−2nw5106619 0.0 1024518
10:00+1w685610 0.0 1027679
13:00+4w68450 0.0 10261106
16:00+5wsw68440 0.0 10241193
19:00+3ssw47530 0.0 1023141
22:00+2s611550 0.0 1023241
5 march, fri
fri501:00+1s714630 0.0 1023304
04:000ssw511740 0.0 1022273
07:000ssw49870 0.0 1022228
10:00+3ssw68730 0.0 1022366
13:00+8sw67490 0.0 1021699
16:00+9wsw45430 0.0 10201099
19:00+6sw23590 0.0 101926
22:00+4s59810 0.0 1021192